RH
23 23 31 46 48 55 74 90 97 99 100 96 86 75 78 72 73 70 65 66 55 56 60 70 83 82 67 70 82 75 74 70 69 68 70 88 85 72 72 81 77 78 77
22 20 27 26 24 34 38 61 87 94 98 100 97 87 70 71 67 64 61 65 63 53 53 60 91 90 93 86 93 84 76 77 68 71 76 77 79 73 74 80 86 80 76
23 26 31 27 23 22 22 28 43 67 87 92 98 98 88 72 65 61 61 61 69 64 60 63 66 76 77 93 92 94 94 76 72 71 66 79 74 73 76 80 80 82 80
22 25 34 33 33 27 28 21 32 29 37 74 88 97 100 94 78 62 62 61 62 68 66 65 69 73 79 83 91 89 94 81 70 73 69 74 69 68 74 80 78 83 79
24 30 36 34 34 40 40 41 40 56 33 70 95 92 96 100 91 71 62 60 67 65 67 65 64 72 75 84 92 89 89 91 81 74 69 74 72 70 68 76 88 80 83
32 44 35 35 39 48 51 55 58 46 66 87 38 85 97 98 97 92 82 62 63 64 66 67 68 74 74 82 83 88 95 89 85 76 68 74 70 72 72 84 84 82 92
36 49 38 43 47 54 59 62 65 77 69 72 84 83 67 89 99 96 88 65 65 63 69 71 70 72 75 75 80 79 88 91 88 92 74 79 73 71 76 84 87 88 88
48 41 38 47 57 55 60 59 67 78 80 73 93 88 95 93 100 95 82 74 76 68 65 75 73 76 74 76 76 77 78 86 95 96 95 91 77 74 80 82 89 91 82
46 41 47 57 48 60 62 66 69 76 82 79 71 83 93 96 89 92 96 92 84 72 65 68 77 78 78 74 74 74 77 83 88 96 96 95 95 91 87 89 81 91 84
40 45 52 50 59 60 60 66 69 70 74 80 82 75 71 90 86 87 76 79 90 74 69 77 77 78 81 78 73 72 67 72 83 90 97 98 93 90 87 90 90 85 91
42 46 54 60 59 63 66 65 67 73 75 78 83 84 87 79 72 90 93 87 81 94 86 76 81 83 84 82 77 72 66 62 66 80 94 98 95 89 93 89 87 85 94
43 52 58 62 64 67 68 70 73 73 74 76 79 83 85 85 81 84 83 74 80 83 90 91 75 78 83 85 80 73 69 66 64 68 81 96 96 90 91 89 90 86 88
56 54 60 65 67 68 71 72 73 75 76 77 77 81 82 83 83 87 84 81 80 75 84 81 89 81 85 86 81 76 70 68 65 66 72 88 91 92 92 88 92 82 89
66 65 65 66 68 70 72 74 76 76 74 74 75 74 77 79 80 81 84 86 84 71 69 77 79 94 82 83 86 78 74 71 67 69 70 74 87 85 92 84 83 86 85
69 67 69 70 70 74 75 76 77 77 76 76 76 76 77 77 78 81 84 88 84 86 79 63 72 89 90 81 84 84 79 74 71 67 70 70 79 84 88 83 82 83 84
71 72 74 76 76 77 78 78 78 78 78 77 76 75 76 76 76 77 78 79 78 80 86 76 80 80 77 91 88 88 84 80 77 72 72 70 70 82 86 83 80 81 81
56 68 76 80 82 81 81 80 80 78 77 77 78 79 78 78 78 78 76 74 76 81 85 77 71 68 70 72 83 91 88 87 89 76 75 75 69 74 87 88 81 78 80
58 71 79 86 86 85 85 85 84 83 81 80 80 80 80 79 80 78 78 78 79 80 81 80 72 69 69 73 82 97 90 94 94 88 77 79 77 73 81 89 85 82 78
55 59 70 82 88 89 88 88 86 86 84 82 81 81 81 81 82 81 76 78 82 81 77 78 78 76 75 74 73 66 100 100 100 98 81 77 76 75 75 83 87 84 83
70 64 75 84 89 91 91 90 89 86 83 82 81 82 83 84 83 83 85 81 77 76 74 81 84 80 74 67 76 77 83 98 98 100 99 82 76 78 79 80 87 86 86
75 75 86 87 89 93 91 88 91 96 99 98 96 94 94 91 84 82 92 94 95 94 92 82 79 76 77 78 73 66 74 91 88 99 100 100 98 98 99 89 93 92 87
81 86 90 94 96 91 88 90 88 96 100 99 96 92 90 86 86 75 75 84 93 98 97 92 82 78 74 74 71 79 87 78 95 98 100 99 100 100 100 100 100 100 96
89 93 95 98 99 98 92 89 89 96 98 98 97 94 92 85 76 79 80 76 78 89 93 95 97 91 80 74 76 77 70 76 86 94 99 92 99 100 100 100 98 99 99
100 100 100 100 99 98 89 87 85 94 99 97 95 93 93 91 88 84 83 84 86 79 75 75 72 71 76 80 79 81 82 82 80 73 88 96 92 96 99 100 98 95 91
100 100 95 96 95 93 91 86 85 96 97 93 91 92 94 94 90 82 83 93 97 95 87 75 70 78 86 77 72 74 80 81 81 68 71 99 94 96 99 100 100 98 88
100 100 96 94 93 91 88 89 88 94 97 96 88 83 77 73 70 73 85 96 97 93 90 84 80 77 74 76 79 84 83 83 82 88 68 91 90 95 100 100 100 100 99
Wind_Speed
30 29 27 25 25 25 24 20 19 18 17 20 23 25 24 21 24 24 21 26 20 17 20 18 20 21 20 18 16 15 16 15 14 15 15 17 16 12 12 12 13 12 11
31 30 29 29 28 28 27 26 23 23 22 18 26 27 29 27 23 21 13 26 24 20 19 21 20 24 22 21 19 18 19 19 17 18 16 18 14 13 13 15 14 13 12
32 31 30 31 31 31 28 28 27 25 23 22 21 28 35 35 32 29 22 16 25 22 21 24 24 23 25 23 20 19 19 22 21 21 20 20 17 16 16 16 13 14 13
31 31 31 32 32 31 30 31 32 31 28 26 27 23 28 37 37 35 29 22 21 25 22 25 26 24 27 24 22 22 21 22 24 22 21 22 20 17 18 17 17 17 15
30 29 31 31 32 32 32 32 31 30 33 30 27 29 25 34 36 35 37 32 27 28 27 26 26 28 27 27 25 24 24 25 26 24 23 23 18 21 19 20 19 18 16
29 28 30 32 32 32 34 33 32 32 26 26 35 26 22 28 38 34 37 35 36 28 30 29 27 31 30 31 30 28 27 27 27 28 25 26 23 23 21 20 21 20 19
27 26 30 30 31 31 30 31 32 28 24 30 20 27 26 23 34 36 37 37 34 34 31 33 32 32 34 33 34 32 31 30 27 28 30 31 28 26 24 23 23 23 21
24 25 27 28 28 30 29 30 29 28 18 26 17 18 5 7 12 26 31 36 36 39 38 33 36 35 34 37 38 36 34 34 31 29 30 32 32 30 28 26 25 25 23
23 25 23 23 26 26 27 26 24 24 22 20 20 8 4 4 19 10 26 33 33 33 37 39 36 38 39 38 38 40 39 38 37 33 32 33 32 30 29 30 28 27 26
25 26 23 24 22 24 24 24 21 23 21 22 18 8 17 15 4 7 18 24 31 32 32 36 37 40 41 41 40 41 41 41 41 39 36 35 34 31 33 31 30 29 29
26 26 26 25 25 23 22 24 25 22 20 20 18 19 18 14 22 14 10 11 31 21 30 30 32 36 39 44 45 42 43 41 42 43 40 38 36 34 35 33 33 31 31
27 27 26 26 25 21 23 24 23 22 22 21 22 18 17 11 16 12 10 23 21 29 27 29 30 33 35 37 46 49 45 43 41 42 45 42 40 40 37 35 36 35 35
27 28 28 26 25 26 25 24 24 23 22 22 23 23 20 20 20 20 21 21 14 31 20 27 29 32 33 35 40 44 48 48 44 43 46 47 44 45 41 40 37 37 37
23 25 26 27 28 27 26 25 24 24 23 23 24 25 26 22 21 22 21 20 14 17 26 28 24 34 35 36 40 46 49 50 48 47 45 48 49 45 43 43 42 40 40
20 21 25 27 28 27 26 27 26 26 25 24 24 25 26 25 23 23 23 22 20 12 13 18 15 19 33 37 40 45 49 52 53 52 49 49 52 48 49 46 45 44 42
22 24 25 25 28 28 26 26 27 26 26 27 26 25 26 26 25 24 25 26 25 25 14 25 30 32 40 35 33 41 48 53 54 56 53 50 51 53 51 51 49 47 46
25 25 26 27 27 28 27 27 28 28 28 28 27 27 28 28 29 26 25 26 27 25 20 33 35 40 38 37 34 40 42 50 52 54 56 54 53 56 56 55 53 49 50
25 25 25 26 27 28 28 28 29 28 30 31 31 29 29 27 29 28 26 26 26 25 28 28 35 38 38 36 35 34 44 42 47 52 54 55 56 58 59 58 57 55 51
28 29 28 28 28 28 29 29 30 31 31 32 32 31 32 29 30 29 29 28 26 27 29 30 36 32 37 36 36 39 30 37 43 45 53 55 56 58 61 61 60 58 56
28 30 28 29 30 30 30 30 30 31 32 33 33 33 33 31 33 32 30 29 29 29 30 30 28 33 32 37 30 30 33 30 39 40 46 52 53 57 61 63 64 62 61
27 28 27 30 30 30 29 28 30 32 32 34 34 34 34 33 35 36 34 31 28 27 26 27 25 29 30 28 25 28 30 29 41 32 34 43 47 53 56 60 63 66 65
28 27 28 29 30 29 28 31 32 34 34 33 35 34 34 34 35 36 38 39 39 34 31 29 29 26 34 30 31 30 25 29 12 33 35 33 39 41 44 48 56 60 67
28 28 28 28 30 31 30 31 33 35 34 33 33 34 35 33 35 34 34 37 38 38 38 37 34 32 34 34 30 31 34 28 28 35 30 38 36 41 44 45 51 60 63
27 27 28 28 30 32 31 33 34 35 32 33 33 34 35 36 35 34 34 35 36 37 38 39 41 42 38 36 34 34 36 39 41 43 37 23 39 42 40 42 50 56 60
28 27 26 29 30 34 32 33 34 33 32 34 34 35 35 36 36 35 36 35 34 36 37 41 45 46 43 42 40 37 35 29 23 37 39 23 29 33 37 38 42 53 56
28 26 29 30 30 33 34 31 32 32 31 30 31 32 33 35 37 37 36 33 31 35 33 36 40 41 42 42 45 46 39 34 29 20 46 17 36 27 8 34 41 43 51
Wind_Direction
21 16 16 13 9 5 358 346 333 315 299 281 274 264 253 256 251 255 255 233 240 237 233 223 216 211 207 202 202 206 204 209 204 209 197 187 178 179 188 181 170 167 160
21 17 14 10 7 3 2 356 346 334 313 308 280 267 258 249 247 246 261 237 236 238 239 224 213 217 207 206 203 207 204 210 213 208 201 198 192 200 198 192 170 180 173
19 18 15 9 6 2 358 354 349 342 331 315 297 288 262 259 253 251 248 251 235 230 233 227 225 221 217 206 208 208 208 208 207 211 210 203 201 199 202 189 186 188 182
17 15 12 8 3 2 360 359 353 347 344 331 320 311 285 262 259 252 252 246 241 233 230 231 230 226 221 214 209 211 213 207 207 211 214 213 215 213 207 199 193 191 186
13 12 8 4 1 1 360 359 355 354 348 343 333 310 294 267 258 259 258 251 246 239 235 232 238 232 226 225 212 213 213 211 210 217 214 217 216 213 208 200 193 198 191
12 10 2 1 1 359 359 358 358 352 355 339 333 320 306 276 251 255 259 248 245 240 235 234 233 233 229 227 225 217 213 213 216 215 212 216 215 215 208 201 206 197 196
9 7 0 359 359 357 356 356 355 355 353 350 353 327 320 280 253 251 251 241 242 243 237 236 235 232 231 227 228 225 220 213 216 215 214 214 214 212 209 204 205 199 204
8 0 359 357 356 353 353 354 360 354 348 2 350 309 322 303 261 247 237 239 245 243 240 234 233 230 229 229 227 227 225 219 212 212 213 214 218 214 211 209 205 202 208
357 356 359 355 348 349 347 350 353 354 342 342 349 300 323 325 346 311 251 245 246 243 241 238 233 233 232 230 231 229 225 223 219 213 213 213 213 213 210 207 208 209 210
348 350 353 348 350 341 344 342 339 339 338 328 340 328 314 312 323 319 312 309 257 243 239 235 233 232 233 231 228 228 226 223 223 218 216 211 211 215 211 211 210 211 209
342 343 343 344 340 342 336 332 331 331 327 319 315 313 311 309 283 256 282 318 331 294 253 241 234 232 229 233 232 227 226 224 224 224 220 215 211 212 213 212 211 212 211
335 336 338 335 336 330 328 326 324 320 316 310 304 301 295 290 299 296 304 296 299 298 311 261 241 235 231 227 232 230 224 224 226 226 224 218 214 211 211 215 215 215 212
329 329 331 329 324 323 321 318 316 313 311 306 302 297 293 284 283 281 286 292 293 297 302 293 258 240 237 232 230 229 227 226 227 228 226 222 217 214 210 212 216 216 212
318 320 320 316 318 317 316 314 310 307 306 301 297 294 291 287 282 280 277 290 294 287 289 268 286 254 239 233 229 231 231 229 230 229 227 225 221 218 213 216 215 215 215
314 310 310 311 311 311 311 309 306 303 301 299 295 293 290 288 285 280 278 272 272 283 288 276 278 286 248 237 232 229 230 232 232 231 228 226 223 220 213 217 217 216 217
310 308 309 308 307 307 306 304 302 300 298 295 293 290 288 288 287 283 276 273 267 275 282 285 288 284 288 298 239 231 231 232 232 232 229 225 225 222 217 217 218 218 216
313 309 308 306 303 303 303 300 297 296 295 294 291 288 285 286 285 282 279 276 273 269 269 282 279 287 288 290 291 240 232 230 229 232 229 226 226 225 219 217 219 220 218
313 308 305 301 299 298 298 297 295 292 291 290 288 286 283 283 280 279 278 275 275 274 272 278 281 284 285 287 285 287 228 227 225 229 230 226 225 225 223 220 220 221 220
317 313 308 302 300 298 296 294 291 290 287 284 284 282 280 279 276 275 274 272 273 271 270 274 282 284 285 287 288 279 262 226 226 227 231 228 226 225 226 224 221 222 222
310 311 305 300 297 297 295 292 290 287 283 281 280 278 276 274 272 271 269 269 269 268 270 274 276 282 280 281 285 278 284 241 237 225 228 232 231 229 228 228 225 224 224
307 308 304 301 299 296 294 294 291 287 285 283 281 279 276 274 275 271 267 265 261 258 257 263 265 272 276 284 276 277 273 288 244 234 218 225 226 227 229 232 229 226 226
310 307 302 299 297 296 296 297 295 292 287 285 285 283 281 279 276 277 273 269 266 264 263 262 263 260 269 272 277 288 295 266 271 218 212 220 219 218 221 225 227 227 229
309 305 302 299 296 295 299 298 296 296 293 288 285 285 284 280 280 278 276 274 272 270 267 268 267 261 266 267 274 277 277 281 286 292 237 221 214 217 221 222 227 229 229
304 303 301 299 297 296 300 300 299 297 294 289 284 280 277 276 274 275 272 268 264 263 262 261 263 265 263 267 266 270 276 284 283 279 278 278 204 219 214 219 224 230 231
303 301 302 300 299 298 302 301 302 297 292 287 284 280 277 276 275 277 275 272 269 263 261 264 265 264 261 261 261 265 265 269 274 273 272 289 208 204 208 212 219 227 230
297 302 302 301 301 299 301 304 302 297 292 293 292 286 284 284 282 280 277 274 271 268 266 267 266 263 260 260 258 252 255 257 265 274 261 251 273 191 198 209 214 220 226